QLK521 YSWG-YSSY

Flight info

Callsign QLK521
Flight time 0h 45m
Altitude 19000
Route WG W113 ODALE
Aircraft A320/M-SDE3FGHIRWY/LB1

Departure

Time 2026-05-08 06:11
Airport Wagga Wagga Airport (YSWG)

Arrival

Time 2026-05-08 06:56
Airport Sydney Kingsford Smith International Airport (YSSY)
Time Latitude Longitude Altitude Speed Heading
2026-05-08 05:49 -35.15970 147.46139 703 ft 0 kts 282°
2026-05-08 05:59 -35.15969 147.46130 695 ft 2 kts 278°
2026-05-08 05:59 -35.15968 147.46106 704 ft 3 kts 272°
2026-05-08 06:00 -35.15966 147.46086 700 ft 3 kts 292°
2026-05-08 06:00 -35.15954 147.46085 696 ft 1 kts 152°
2026-05-08 06:00 -35.15950 147.46083 693 ft 1 kts 152°
2026-05-08 06:05 -35.15953 147.46085 697 ft 3 kts 152°
2026-05-08 06:05 -35.15988 147.46107 696 ft 7 kts 152°
2026-05-08 06:05 -35.16017 147.46172 697 ft 10 kts 105°
2026-05-08 06:06 -35.16001 147.46247 697 ft 6 kts 62°
2026-05-08 06:06 -35.16020 147.46281 700 ft 6 kts 149°
2026-05-08 06:06 -35.16057 147.46305 701 ft 6 kts 152°
2026-05-08 06:06 -35.16107 147.46336 713 ft 9 kts 153°
2026-05-08 06:07 -35.16149 147.46363 711 ft 11 kts 152°
2026-05-08 06:07 -35.16255 147.46432 714 ft 14 kts 152°
2026-05-08 06:07 -35.16320 147.46479 719 ft 5 kts 124°
2026-05-08 06:07 -35.16312 147.46510 719 ft 7 kts 63°
2026-05-08 06:08 -35.16280 147.46583 717 ft 13 kts 62°
2026-05-08 06:08 -35.16231 147.46696 720 ft 17 kts 61°
2026-05-08 06:08 -35.16167 147.46844 717 ft 23 kts 62°
2026-05-08 06:08 -35.16084 147.47032 722 ft 27 kts 62°
2026-05-08 06:09 -35.15993 147.47244 724 ft 30 kts 62°
2026-05-08 06:09 -35.15929 147.47389 728 ft 7 kts 61°
2026-05-08 06:09 -35.15935 147.47421 730 ft 4 kts 135°
2026-05-08 06:09 -35.15969 147.47443 731 ft 7 kts 153°
2026-05-08 06:10 -35.16022 147.47477 731 ft 11 kts 151°
2026-05-08 06:10 -35.16065 147.47479 730 ft 5 kts 254°
2026-05-08 06:10 -35.16142 147.47310 728 ft 55 kts 242°
2026-05-08 06:10 -35.16430 147.46648 719 ft 117 kts 242°
2026-05-08 06:11 -35.16850 147.45680 1094 ft 129 kts 242°
2026-05-08 06:11 -35.17269 147.44712 1699 ft 131 kts 242°
2026-05-08 06:11 -35.17733 147.43681 2174 ft 143 kts 234°
2026-05-08 06:11 -35.18481 147.42859 2800 ft 150 kts 210°
2026-05-08 06:12 -35.19525 147.42529 3258 ft 167 kts 185°
2026-05-08 06:12 -35.20734 147.42952 3608 ft 200 kts 152°
2026-05-08 06:12 -35.21748 147.44327 3973 ft 236 kts 123°
2026-05-08 06:12 -35.22287 147.46361 4498 ft 269 kts 101°
2026-05-08 06:13 -35.22020 147.48680 5363 ft 286 kts 68°
2026-05-08 06:13 -35.20786 147.50642 6353 ft 294 kts 48°
2026-05-08 06:13 -35.19340 147.52442 7283 ft 298 kts 48°
2026-05-08 06:13 -35.17876 147.54264 8098 ft 306 kts 48°
2026-05-08 06:14 -35.16388 147.56119 8415 ft 310 kts 48°
2026-05-08 06:14 -35.14960 147.58091 8518 ft 308 kts 58°
2026-05-08 06:14 -35.13828 147.60306 8533 ft 311 kts 64°
2026-05-08 06:14 -35.12402 147.62511 8533 ft 352 kts 40°
2026-05-08 06:15 -35.10190 147.64112 8532 ft 385 kts 26°
2026-05-08 06:15 -35.07830 147.65517 8539 ft 367 kts 26°
2026-05-08 06:15 -35.05520 147.66894 8543 ft 382 kts 26°
2026-05-08 06:15 -35.03088 147.68347 8528 ft 384 kts 26°
2026-05-08 06:16 -35.00795 147.69721 8750 ft 359 kts 26°
2026-05-08 06:16 -34.98620 147.71028 9933 ft 338 kts 26°
2026-05-08 06:16 -34.96494 147.72310 10639 ft 351 kts 26°
2026-05-08 06:16 -34.94219 147.73646 10880 ft 374 kts 24°
2026-05-08 06:17 -34.89318 147.76258 12153 ft 389 kts 23°
2026-05-08 06:17 -34.86900 147.77703 12855 ft 394 kts 30°
2026-05-08 06:17 -34.84592 147.79554 13571 ft 399 kts 38°
2026-05-08 06:18 -34.82485 147.81775 14256 ft 402 kts 46°
2026-05-08 06:18 -34.80540 147.84242 14900 ft 406 kts 44°
2026-05-08 06:18 -34.78214 147.86205 15525 ft 411 kts 26°
2026-05-08 06:18 -34.75588 147.87617 16199 ft 413 kts 22°
2026-05-08 06:19 -34.72937 147.88996 16859 ft 415 kts 22°
2026-05-08 06:19 -34.70263 147.90373 17527 ft 419 kts 22°
2026-05-08 06:19 -34.67568 147.91768 18194 ft 422 kts 22°
2026-05-08 06:19 -34.64909 147.93215 18832 ft 426 kts 24°
2026-05-08 06:20 -34.62259 147.94885 19115 ft 431 kts 34°
2026-05-08 06:20 -34.60013 147.97286 19211 ft 435 kts 51°
2026-05-08 06:20 -34.58387 148.00448 19224 ft 449 kts 70°
2026-05-08 06:20 -34.57603 148.04106 19226 ft 448 kts 88°
2026-05-08 06:21 -34.57725 148.07845 19231 ft 443 kts 103°
2026-05-08 06:21 -34.58206 148.11540 19225 ft 443 kts 103°
2026-05-08 06:21 -34.58690 148.15235 19225 ft 443 kts 103°
2026-05-08 06:21 -34.59173 148.18931 19226 ft 443 kts 103°
2026-05-08 06:22 -34.59655 148.22638 19226 ft 444 kts 103°
2026-05-08 06:22 -34.60129 148.26305 19222 ft 444 kts 103°
2026-05-08 06:22 -34.60604 148.30018 19223 ft 444 kts 103°
2026-05-08 06:22 -34.61074 148.33731 19223 ft 444 kts 103°
2026-05-08 06:23 -34.61534 148.37402 19225 ft 444 kts 103°
2026-05-08 06:23 -34.61999 148.41120 19226 ft 444 kts 103°
2026-05-08 06:23 -34.62466 148.44829 19227 ft 444 kts 103°
2026-05-08 06:23 -34.62934 148.48532 19240 ft 444 kts 103°
2026-05-08 06:24 -34.63404 148.52239 19240 ft 444 kts 103°
2026-05-08 06:24 -34.63868 148.55897 19240 ft 444 kts 103°
2026-05-08 06:24 -34.64345 148.59648 19237 ft 444 kts 103°
2026-05-08 06:24 -34.64809 148.63303 19235 ft 443 kts 103°
2026-05-08 06:25 -34.65272 148.67006 19234 ft 443 kts 102°
2026-05-08 06:25 -34.65730 148.70709 19228 ft 443 kts 102°
2026-05-08 06:25 -34.66184 148.74409 19227 ft 443 kts 102°
2026-05-08 06:25 -34.66638 148.78114 19242 ft 443 kts 102°
2026-05-08 06:26 -34.67091 148.81810 19239 ft 442 kts 102°
2026-05-08 06:26 -34.67545 148.85494 19239 ft 441 kts 102°
2026-05-08 06:26 -34.68002 148.89184 19238 ft 441 kts 102°
2026-05-08 06:26 -34.68459 148.92862 19229 ft 440 kts 102°
2026-05-08 06:27 -34.68914 148.96545 19227 ft 440 kts 102°
2026-05-08 06:27 -34.69362 149.00222 19226 ft 440 kts 102°
2026-05-08 06:27 -34.69391 149.00456 19227 ft 440 kts 102°
2026-05-08 06:27 -34.69649 149.02598 19226 ft 440 kts 102°
2026-05-08 06:28 -34.70091 149.06271 19234 ft 440 kts 103°
2026-05-08 06:28 -34.70530 149.09944 19228 ft 440 kts 102°
2026-05-08 06:28 -34.70969 149.13627 19225 ft 440 kts 103°
2026-05-08 06:28 -34.71408 149.17305 19221 ft 440 kts 103°
2026-05-08 06:29 -34.71854 149.20992 19211 ft 440 kts 103°
2026-05-08 06:29 -34.72298 149.24678 19206 ft 440 kts 103°
2026-05-08 06:29 -34.72738 149.28368 19198 ft 440 kts 103°
2026-05-08 06:29 -34.73174 149.32048 19198 ft 441 kts 102°
2026-05-08 06:30 -34.73364 149.35784 19198 ft 446 kts 92°
2026-05-08 06:30 -34.72999 149.39557 19191 ft 452 kts 81°
2026-05-08 06:30 -34.72075 149.43216 19196 ft 456 kts 70°
2026-05-08 06:30 -34.70666 149.46680 19196 ft 458 kts 64°
2026-05-08 06:31 -34.69166 149.50104 19187 ft 458 kts 64°
2026-05-08 06:31 -34.67666 149.53527 19193 ft 459 kts 64°
2026-05-08 06:31 -34.66170 149.56947 19194 ft 459 kts 64°
2026-05-08 06:31 -34.64675 149.60367 19199 ft 459 kts 65°
2026-05-08 06:32 -34.63177 149.63795 19193 ft 459 kts 65°
2026-05-08 06:32 -34.61676 149.67226 19184 ft 459 kts 64°
2026-05-08 06:32 -34.60497 149.69916 19183 ft 460 kts 64°
2026-05-08 06:32 -34.58994 149.73342 19174 ft 460 kts 64°
2026-05-08 06:33 -34.57913 149.75800 19174 ft 460 kts 64°
2026-05-08 06:33 -34.56405 149.79220 19175 ft 460 kts 64°
2026-05-08 06:33 -34.54894 149.82642 19176 ft 460 kts 64°
2026-05-08 06:33 -34.53385 149.86064 19162 ft 460 kts 64°
2026-05-08 06:34 -34.51873 149.89497 19181 ft 461 kts 65°
2026-05-08 06:34 -34.50364 149.92920 19181 ft 461 kts 65°
2026-05-08 06:34 -34.48851 149.96349 19164 ft 461 kts 65°
2026-05-08 06:34 -34.47338 149.99770 19161 ft 461 kts 65°
2026-05-08 06:35 -34.45818 150.03204 19164 ft 461 kts 64°
2026-05-08 06:35 -34.44304 150.06629 19154 ft 461 kts 64°
2026-05-08 06:35 -34.42806 150.10013 18969 ft 448 kts 65°
2026-05-08 06:35 -34.41354 150.13281 18733 ft 435 kts 65°
2026-05-08 06:36 -34.39927 150.16482 18508 ft 429 kts 64°
2026-05-08 06:36 -34.38514 150.19652 18248 ft 428 kts 64°
2026-05-08 06:36 -34.37119 150.22782 17984 ft 427 kts 64°
2026-05-08 06:36 -34.35695 150.25980 17712 ft 426 kts 64°
2026-05-08 06:37 -34.34310 150.29088 17443 ft 424 kts 64°
2026-05-08 06:37 -34.32905 150.32229 17180 ft 423 kts 64°
2026-05-08 06:37 -34.31510 150.35347 16578 ft 421 kts 64°
2026-05-08 06:37 -34.30119 150.38457 15934 ft 419 kts 64°
2026-05-08 06:38 -34.28735 150.41550 15257 ft 418 kts 64°
2026-05-08 06:38 -34.27350 150.44642 14607 ft 416 kts 64°
2026-05-08 06:38 -34.25974 150.47720 13996 ft 414 kts 64°
2026-05-08 06:38 -34.24615 150.50766 13315 ft 411 kts 64°
2026-05-08 06:39 -34.23269 150.53782 12676 ft 406 kts 64°
2026-05-08 06:39 -34.21937 150.56767 12048 ft 401 kts 64°
2026-05-08 06:39 -34.20616 150.59719 11425 ft 397 kts 64°
2026-05-08 06:39 -34.19307 150.62635 10826 ft 392 kts 64°
2026-05-08 06:40 -34.18031 150.65476 10645 ft 375 kts 64°
2026-05-08 06:40 -34.16811 150.68185 10531 ft 360 kts 64°
2026-05-08 06:40 -34.16420 150.69053 10486 ft 355 kts 64°
2026-05-08 06:40 -34.15841 150.70338 10427 ft 348 kts 64°
2026-05-08 06:41 -34.15237 150.71676 10365 ft 341 kts 64°
2026-05-08 06:41 -34.14120 150.74146 10241 ft 329 kts 64°
2026-05-08 06:41 -34.13036 150.76538 10073 ft 321 kts 64°
2026-05-08 06:41 -34.11971 150.78888 9751 ft 320 kts 65°
2026-05-08 06:42 -34.11168 150.80662 9484 ft 318 kts 65°
2026-05-08 06:42 -34.10239 150.82714 9131 ft 318 kts 65°
2026-05-08 06:42 -34.09189 150.85050 8834 ft 314 kts 65°
2026-05-08 06:42 -34.08149 150.87365 8448 ft 313 kts 66°
2026-05-08 06:43 -34.07121 150.89660 8170 ft 309 kts 66°
2026-05-08 06:43 -34.06099 150.91937 7839 ft 307 kts 66°
2026-05-08 06:43 -34.05221 150.94245 7541 ft 299 kts 78°
2026-05-08 06:43 -34.04725 150.96644 7297 ft 292 kts 82°
2026-05-08 06:44 -34.04283 150.99026 7005 ft 290 kts 83°
2026-05-08 06:44 -34.03845 151.01391 6720 ft 287 kts 83°
2026-05-08 06:44 -34.03406 151.03732 6406 ft 285 kts 83°
2026-05-08 06:44 -34.02965 151.06057 6075 ft 284 kts 83°
2026-05-08 06:45 -34.02530 151.08344 6027 ft 285 kts 83°
2026-05-08 06:45 -34.02078 151.10690 6038 ft 287 kts 83°
2026-05-08 06:45 -34.01630 151.13029 6034 ft 287 kts 83°
2026-05-08 06:45 -34.01182 151.15381 5951 ft 285 kts 83°
2026-05-08 06:46 -34.00923 151.16726 5734 ft 285 kts 83°
2026-05-08 06:46 -34.00475 151.19035 5407 ft 285 kts 83°
2026-05-08 06:46 -34.00026 151.21326 5094 ft 283 kts 83°
2026-05-08 06:46 -33.99568 151.23637 4764 ft 282 kts 83°
2026-05-08 06:47 -33.99114 151.25939 4446 ft 281 kts 82°
2026-05-08 06:47 -33.98693 151.28199 4313 ft 271 kts 83°
2026-05-08 06:47 -33.98289 151.30384 4183 ft 262 kts 83°
2026-05-08 06:47 -33.97902 151.32464 4056 ft 253 kts 83°
2026-05-08 06:48 -33.97522 151.34504 3928 ft 243 kts 82°
2026-05-08 06:48 -33.97189 151.36463 3795 ft 234 kts 83°
2026-05-08 06:48 -33.96869 151.38369 3540 ft 231 kts 83°
2026-05-08 06:48 -33.96558 151.40254 3236 ft 229 kts 83°
2026-05-08 06:49 -33.96252 151.42122 3024 ft 228 kts 80°
2026-05-08 06:49 -33.95542 151.43826 3032 ft 227 kts 45°
2026-05-08 06:49 -33.94235 151.44747 3028 ft 216 kts
2026-05-08 06:49 -33.92768 151.44772 3033 ft 209 kts 347°
2026-05-08 06:50 -33.91331 151.44505 3026 ft 207 kts 338°
2026-05-08 06:50 -33.90170 151.43696 3035 ft 190 kts 305°
2026-05-08 06:50 -33.89612 151.42869 3034 ft 185 kts 294°
2026-05-08 06:50 -33.89166 151.41805 3034 ft 179 kts 281°
2026-05-08 06:51 -33.88918 151.40365 3033 ft 174 kts 267°
2026-05-08 06:51 -33.89068 151.38958 3034 ft 167 kts 246°
2026-05-08 06:51 -33.89381 151.37620 3054 ft 159 kts 250°
2026-05-08 06:51 -33.89647 151.36390 2937 ft 149 kts 250°
2026-05-08 06:52 -33.89917 151.35210 2777 ft 143 kts 250°
2026-05-08 06:52 -33.90185 151.34066 2593 ft 140 kts 251°
2026-05-08 06:52 -33.90449 151.32946 2415 ft 138 kts 250°
2026-05-08 06:52 -33.90710 151.31843 2232 ft 136 kts 250°
2026-05-08 06:53 -33.90882 151.31121 2113 ft 134 kts 252°
2026-05-08 06:53 -33.91215 151.29714 1880 ft 129 kts 252°
2026-05-08 06:53 -33.91458 151.28691 1709 ft 128 kts 252°
2026-05-08 06:53 -33.91700 151.27670 1543 ft 126 kts 253°
2026-05-08 06:54 -33.91859 151.26999 1431 ft 125 kts 253°
2026-05-08 06:54 -33.92099 151.25987 1273 ft 127 kts 253°
2026-05-08 06:54 -33.92416 151.24646 1043 ft 126 kts 254°
2026-05-08 06:54 -33.92657 151.23626 863 ft 126 kts 252°
2026-05-08 06:55 -33.92818 151.22941 744 ft 124 kts 252°
2026-05-08 06:55 -33.93056 151.21944 580 ft 126 kts 254°
2026-05-08 06:55 -33.93299 151.20917 416 ft 125 kts 255°
2026-05-08 06:55 -33.93544 151.19890 241 ft 127 kts 255°
2026-05-08 06:56 -33.93781 151.18883 92 ft 124 kts 255°
2026-05-08 06:56 -33.94003 151.17930 23 ft 99 kts 254°
2026-05-08 06:56 -33.94111 151.17485 20 ft 11 kts 254°
2026-05-08 06:56 -33.94147 151.17330 22 ft 19 kts 254°
2026-05-08 06:57 -33.94093 151.17254 22 ft 15 kts 354°
2026-05-08 06:57 -33.93989 151.17229 20 ft 11 kts 360°
2026-05-08 06:57 -33.93952 151.17316 18 ft 14 kts 76°
2026-05-08 06:57 -33.93921 151.17446 18 ft 18 kts 73°
2026-05-08 06:58 -33.93883 151.17605 19 ft 21 kts 75°
2026-05-08 06:58 -33.93848 151.17755 20 ft 10 kts 72°
2026-05-08 06:58 -33.93786 151.17784 24 ft 12 kts
2026-05-08 06:58 -33.93712 151.17800 30 ft 10 kts 11°
2026-05-08 06:59 -33.93622 151.17819 31 ft 15 kts
2026-05-08 06:59 -33.93568 151.17808 31 ft 6 kts 279°
2026-05-08 06:59 -33.93565 151.17772 31 ft 2 kts 278°
2026-05-08 06:59 -33.93564 151.17764 31 ft 0 kts 278°